Location: Banff
(51.1667°N, 115.5667°W)
Time: 09:21:16
(UTC+00:00)

Envisat - Pass Details

Date: 01 December 2022
Orbit: 763 x 765 km, 98.2° (Epoch: 28 January)

Event Time Altitude Azimuth Distance (km) Brightness Sun altitude
Rises 00:11:40 0° 206° (SSW) 3,221 7.3 -5.2°
Reaches altitude 10° 00:14:33 10° 223° (SW) 2,301 6.9 -5.6°
Maximum altitude 00:18:16 20° 271° (W) 1,703 5.8 -6.1°
Drops below altitude 10° 00:22:01 10° 318° (NW) 2,314 5.7 -6.7°
Sets 00:24:56 0° 335° (NNW) 3,246 6.2 -7.1°
